Regional Weather Roundup
Issued by NWS Charleston, WV

Home | Current Version | Previous Version | Text Only | Print | Product List | Glossary On
Versions: 1 2 3 4 5 6 7 8 9 10 11 12 13 14 15 16 17 18 19 20 21 22 23 24 25 26 27 28 29 30 31 32 33 34 35 36 37 38 39 40 41 42 43 44 45 46 47 48 49 50
000
ASUS41 KRLX 312010
RWRRLX
West Virginia Regional Weather Roundup
National Weather Service Charleston WV
400 PM EDT FRI JUL 31 2015

Note: "fair" indicates few or no clouds below 12,000 feet with no
significant weather and/or obstructions to visibility.

WVZ003-312100-
Northern Panhandle of West Virginia

CITY           SKY/WX    TMP DP  RH WIND       PRES   REMARKS
WHEELING       MOSUNNY   84  56  38 W7G16     29.94F
$$

WVZ009-312100-
Northwest West Virginia

CITY           SKY/WX    TMP DP  RH WIND       PRES   REMARKS
PARKERSBURG    MOSUNNY   87  57  35 VRB7G17   29.99F
$$

WVZ006-312100-
Western West Virginia

CITY           SKY/WX    TMP DP  RH WIND       PRES   REMARKS
HUNTINGTON     PTSUNNY   87  58  37 SW7       29.99F
$$

WVZ015-312100-
West Central West Virginia

CITY           SKY/WX    TMP DP  RH WIND       PRES   REMARKS
CHARLESTON     MOSUNNY   86  57  37 SW8       30.00F
$$

WVZ022-031-312100-
North Central West Virginia

CITY           SKY/WX    TMP DP  RH WIND       PRES   REMARKS
CLARKSBURG     PTSUNNY   83  59  44 SW10G18   29.98F
MORGANTOWN     PTSUNNY   85  54  34 W9        29.98F
$$

WVZ025-035-042-045-312100-
Southern West Virginia

CITY           SKY/WX    TMP DP  RH WIND       PRES   REMARKS
BECKLEY        MOSUNNY   79  55  43 NW10      30.08F
LOGAN            N/A     82  57  42 CALM      30.01F
BLUEFIELD      MOSUNNY   80  54  40 N7        30.10F
LEWISBURG      PTSUNNY   80  52  37 W7        30.05F
$$

WVZ047-312100-
Northern Mountains of West Virginia

CITY           SKY/WX    TMP DP  RH WIND       PRES   REMARKS
ELKINS         MOSUNNY   80  56  43 NW7       30.03F
$$

WVZ052-312100-
Eastern Panhandle of West Virginia

CITY           SKY/WX    TMP DP  RH WIND       PRES   REMARKS
MARTINSBURG    SUNNY     87  58  37 W8        29.91F
PETERSBURG     PTSUNNY  N/A N/A N/A SW5       29.96F
$$



USA.gov is the U.S. government's official web portal to all federal, state and local government web resources and services.